KC7NGC-B Weather Reports


time (UTC)temp
C
wind
direction
speed
KPH
gust
KPH
rain 1hr
cm
rain 24hr
cm
rain mn
cm
humidity
%
barometer
mb
20260508075627 16 206 11.3 17.7 0.00 0.00 0.00 25 1014.9
20260508074624 16 206 9.7 17.7 0.00 0.00 0.00 26 1014.8
20260508073624 16 211 9.7 17.7 0.00 0.00 0.00 27 1014.8
20260508072620 17 222 3.2 6.4 0.00 0.00 0.00 26 1014.7
20260508071617 17 182 4.8 8.0 0.00 0.00 0.00 24 1014.9
20260508070639 17 202 8.0 11.3 0.00 0.00 0.00 25 1014.5
20260508065633 17 259 8.0 14.5 0.00 0.00 0.00 25 1014.7
20260508064632 17 221 8.0 12.9 0.00 0.00 0.00 26 1014.1
20260508063632 17 201 12.9 19.3 0.00 0.00 0.00 25 1014.0
20260508062626 17 214 9.7 22.5 0.00 0.00 0.00 26 1014.0
20260508061624 18 212 14.5 19.3 0.00 0.00 0.00 26 1013.8
20260508060630 18 217 19.3 27.4 0.00 0.00 0.00 26 1013.8
20260508055622 18 206 11.3 19.3 0.00 0.00 0.00 28 1014.0
20260508054622 18 214 14.5 20.9 0.00 0.00 0.00 28 1013.9
20260508053635 18 212 14.5 20.9 0.00 0.00 0.00 28 1014.0
20260508052656 18 217 22.5 30.6 0.00 0.00 0.00 27 1014.1
20260508051630 18 216 14.5 30.6 0.00 0.00 0.00 26 1013.9
20260508050631 18 209 17.7 24.1 0.00 0.00 0.00 27 1014.1
20260508045649 19 203 11.3 16.1 0.00 0.00 0.00 28 1013.9
20260508044623 19 211 9.7 19.3 0.00 0.00 0.00 29 1014.1
20260508043624 20 199 11.3 16.1 0.00 0.00 0.00 30 1014.1
20260508042626 20 218 4.8 8.0 0.00 0.00 0.00 33 1014.1
20260508041639 21 232 3.2 4.8 0.00 0.00 0.00 32 1014.0
20260508040637 21 189 6.4 9.7 0.00 0.00 0.00 30 1014.0
20260508035633 21 86 1.6 3.2 0.00 0.00 0.00 30 1014.1
20260508034635 21 185 1.6 4.8 0.00 0.00 0.00 28 1013.9
20260508033627 21 188 3.2 4.8 0.00 0.00 0.00 34 1013.9
20260508032629 21 192 1.6 3.2 0.00 0.00 0.00 34 1013.9
20260508031626 21 185 3.2 6.4 0.00 0.00 0.00 33 1014.0
20260508030620 22 177 1.6 3.2 0.00 0.00 0.00 33 1013.8
20260508025621 22 184 3.2 3.2 0.00 0.00 0.00 33 1013.9
20260508024637 22 202 3.2 4.8 0.00 0.00 0.00 32 1013.8
20260508023640 22 212 4.8 6.4 0.00 0.00 0.00 31 1014.0
20260508022630 22 219 3.2 6.4 0.00 0.00 0.00 32 1014.0
20260508021634 23 210 3.2 4.8 0.00 0.00 0.00 31 1014.0
20260508020630 23 197 4.8 6.4 0.00 0.00 0.00 30 1014.0
20260508015630 23 201 4.8 6.4 0.00 0.00 0.00 29 1014.2
20260508014622 23 188 8.0 9.7 0.00 0.00 0.00 26 1014.0
20260508013620 24 184 8.0 9.7 0.00 0.00 0.00 26 1013.9
20260508012621 25 202 6.4 8.0 0.00 0.00 0.00 24 1014.0
20260508011655 25 278 3.2 4.8 0.00 0.00 0.00 24 1014.2
20260508010638 24 146 3.2 3.2 0.00 0.00 0.00 24 1014.1
20260508005633 25 188 4.8 9.7 0.00 0.00 0.00 23 1014.0
20260508004636 25 57 3.2 4.8 0.00 0.00 0.00 23 1014.1
20260508003634 25 219 1.6 3.2 0.00 0.00 0.00 23 1014.2
20260508002651 25 242 4.8 6.4 0.00 0.00 0.00 24 1014.4
20260508001628 24 200 4.8 6.4 0.00 0.00 0.00 24 1014.4
20260508000624 24 188 8.0 9.7 0.00 0.00 0.00 25 1014.4
20260507235619 24 261 4.8 8.0 0.00 0.00 0.00 24 1014.5
20260507234635 24 353 1.6 4.8 0.00 0.00 0.00 24 1014.6
20260507233639 23 193 1.6 6.4 0.00 0.00 0.00 24 1014.8
20260507232634 23 83 1.6 3.2 0.00 0.00 0.00 25 1014.7
20260507231632 24 92 4.8 8.0 0.00 0.00 0.00 25 1014.8
20260507230629 24 199 4.8 8.0 0.00 0.00 0.00 25 1015.0
20260507225629 24 262 3.2 8.0 0.00 0.00 0.00 24 1015.0
20260507224621 25 192 4.8 6.4 0.00 0.00 0.00 25 1015.2
20260507223701 24 75 4.8 9.7 0.00 0.00 0.00 26 1015.3
20260507222618 23 210 3.2 6.4 0.00 0.00 0.00 25 1015.5
20260507221719 23 195 4.8 6.4 0.00 0.00 0.00 26 1015.7
20260507220637 23 171 6.4 9.7 0.00 0.00 0.00 25 1015.8
20260507215630 23 172 9.7 11.3 0.00 0.00 0.00 25 1015.8
20260507214629 23 230 4.8 8.0 0.00 0.00 0.00 27 1016.0
20260507213628 23 183 12.9 17.7 0.00 0.00 0.00 27 1016.2
20260507212646 23 195 8.0 12.9 0.00 0.00 0.00 28 1016.2
20260507211625 22 323 8.0 9.7 0.00 0.00 0.00 27 1016.3
20260507210619 22 188 4.8 8.0 0.00 0.00 0.00 27 1016.4
20260507205620 22 197 6.4 8.0 0.00 0.00 0.00 30 1016.4
20260507204635 22 185 11.3 19.3 0.00 0.00 0.00 30 1016.7
20260507203633 22 189 12.9 17.7 0.00 0.00 0.00 29 1017.0
20260507202633 22 193 8.0 14.5 0.00 0.00 0.00 31 1016.8
20260507201629 21 151 6.4 8.0 0.00 0.00 0.00 31 1016.9
20260507200651 22 180 11.3 17.7 0.00 0.00 0.00 28 1016.9
20260507195625 21 189 8.0 14.5 0.00 0.00 0.00 34 1016.9
20260507194621 21 195 11.3 14.5 0.00 0.00 0.00 33 1017.2
20260507193625 21 181 6.4 14.5 0.00 0.00 0.00 33 1017.0
20260507192622 21 171 12.9 17.7 0.00 0.00 0.00 34 1017.0
20260507191636 21 186 11.3 17.7 0.00 0.00 0.00 34 1017.3
20260507190639 20 180 12.9 24.1 0.00 0.00 0.00 35 1017.1
20260507185638 20 188 11.3 19.3 0.00 0.00 0.00 37 1017.2
20260507184650 20 228 8.0 16.1 0.00 0.00 0.00 37 1017.4
20260507183631 20 180 12.9 20.9 0.00 0.00 0.00 37 1017.3
20260507182625 20 215 8.0 16.1 0.00 0.00 0.00 40 1017.5
20260507181623 19 177 6.4 8.0 0.00 0.00 0.00 43 1017.4
20260507180625 19 184 12.9 17.7 0.00 0.00 0.00 42 1017.5
20260507175622 18 173 8.0 12.9 0.00 0.00 0.00 42 1017.6
20260507174634 19 198 6.4 9.7 0.00 0.00 0.00 44 1017.5
20260507173639 18 208 9.7 16.1 0.00 0.00 0.00 46 1017.7
20260507172631 18 183 9.7 12.9 0.00 0.00 0.00 45 1017.8
20260507171629 18 216 6.4 11.3 0.00 0.00 0.00 44 1017.8
20260507170629 18 196 6.4 8.0 0.00 0.00 0.00 46 1017.8
20260507165646 18 273 11.3 12.9 0.00 0.00 0.00 44 1017.9
20260507164621 18 228 8.0 11.3 0.00 0.00 0.00 45 1017.8
20260507163625 18 263 6.4 9.7 0.00 0.00 0.00 44 1018.0
20260507162619 18 238 9.7 14.5 0.00 0.00 0.00 43 1017.8
20260507161658 17 237 6.4 9.7 0.00 0.00 0.00 43 1017.7
20260507160634 18 267 8.0 12.9 0.00 0.00 0.00 42 1017.7
20260507155632 17 224 6.4 9.7 0.00 0.00 0.00 43 1017.8
20260507154630 17 262 3.2 6.4 0.00 0.00 0.00 45 1017.7
20260507153627 17 249 4.8 8.0 0.00 0.00 0.00 43 1017.6
20260507152650 16 314 6.4 9.7 0.00 0.00 0.00 44 1017.6
20260507151626 16 325 9.7 12.9 0.00 0.00 0.00 46 1017.6
20260507150619 16 327 4.8 6.4 0.00 0.00 0.00 50 1017.3
20260507145617 16 222 4.8 6.4 0.00 0.00 0.00 51 1017.3
20260507144638 16 266 4.8 9.7 0.00 0.00 0.00 54 1017.4
20260507143638 15 266 4.8 8.0 0.00 0.00 0.00 56 1017.3
20260507142629 15 234 4.8 6.4 0.00 0.00 0.00 57 1017.3
20260507141633 15 0.0 0.0 0.00 0.00 0.00 60 1017.3
20260507140625 14 49 4.8 6.4 0.00 0.00 0.00 66 1017.2
20260507135629 13 347 1.6 3.2 0.00 0.00 0.00 66 1017.1
20260507134623 14 333 6.4 6.4 0.00 0.00 0.00 62 1017.0
20260507133620 13 295 1.6 3.2 0.00 0.00 0.00 70 1016.8
20260507132620 12 234 3.2 8.0 0.00 0.00 0.00 71 1016.5
20260507131635 12 230 4.8 4.8 0.00 0.00 0.00 73 1016.7
20260507130655 12 202 4.8 6.4 0.00 0.00 0.00 73 1016.6
20260507125630 12 181 4.8 6.4 0.00 0.00 0.00 73 1016.6
20260507124631 12 200 8.0 11.3 0.00 0.00 0.00 76 1016.4
20260507123629 11 303 4.8 6.4 0.00 0.00 0.00 75 1016.6
20260507122623 11 322 3.2 4.8 0.00 0.00 0.00 73 1016.5
20260507121623 12 220 4.8 6.4 0.00 0.00 0.00 71 1016.3
20260507120621 12 350 3.2 4.8 0.00 0.00 0.00 71 1016.4
20260507115637 12 230 1.6 6.4 0.00 0.00 0.00 70 1016.3
20260507114640 12 209 6.4 11.3 0.00 0.00 0.00 68 1016.0
20260507113637 12 9 1.6 3.2 0.00 0.00 0.00 70 1016.2
20260507112631 12 187 4.8 11.3 0.00 0.00 0.00 67 1016.2
20260507111629 12 229 4.8 6.4 0.00 0.00 0.00 66 1016.5
20260507110629 12 0.0 1.6 0.00 0.00 0.00 68 1016.3
20260507105626 13 16 1.6 3.2 0.00 0.00 0.00 66 1016.4
20260507104641 13 182 3.2 4.8 0.00 0.00 0.00 65 1016.2
20260507103622 13 229 8.0 12.9 0.00 0.00 0.00 66 1016.2
20260507102638 13 200 8.0 14.5 0.00 0.00 0.00 65 1016.2
20260507101633 13 213 3.2 6.4 0.00 0.00 0.00 63 1016.2
20260507100632 13 56 4.8 4.8 0.00 0.00 0.00 64 1016.1
20260507095637 15 227 8.0 9.7 0.00 0.00 0.00 60 1016.0
20260507094636 14 235 6.4 9.7 0.00 0.00 0.00 59 1015.8
20260507093624 15 216 1.6 3.2 0.00 0.00 0.00 58 1016.0
20260507092624 15 207 4.8 6.4 0.00 0.00 0.00 56 1015.9
20260507091622 15 211 8.0 11.3 0.00 0.00 0.00 57 1016.1
20260507090618 15 212 8.0 9.7 0.00 0.00 0.00 56 1016.1
20260507085634 15 246 8.0 9.7 0.00 0.00 0.00 59 1016.0
20260507084637 15 229 9.7 14.5 0.00 0.00 0.00 58 1016.2
20260507083631 15 211 9.7 12.9 0.00 0.00 0.00 60 1016.1
20260507082631 15 210 12.9 19.3 0.00 0.00 0.00 62 1016.0
20260507081629 15 234 9.7 17.7 0.00 0.00 0.00 63 1016.0
20260507080624 15 222 6.4 8.0 0.00 0.00 0.00 62 1016.0